LEMUR-2-BAXTER-OLIVER (46925 NORAD) Tracking and Keplerian Element Data

This shows tracking and keplerian element data for the satellite.

Feedback or suggestion? Click here.




ElementValue
Catalog46925
NameLEMUR-2-BAXTER-OLIVER
Epoch Orbit1135
Epoch Day17.45580496
Epoch Year2021
RAAN6.9741
Inclination51.644
Eccentricity0.0001153
Argument of Perigee332.6789
Mean Anonmoly27.4141
Mean Motion15.53024848
Decay Rate0.00012705
L11 46925U 98067RV 21017.45580496 .00012705 00000-0 20687-3 0 9999
L22 46925 51.6440 6.9741 0001153 332.6789 27.4141 15.53024848 11352

Live tracking and technical data element details for LEMUR-2-BAXTER-OLIVER (NORAD 46925). LEMUR-2-BAXTER-OLIVER can be tracked NOW for your location showing map with azimuth and elevation plus other details from your city location.

Track the satellite on the map from your city or location and see movement details for azimuth, elevation, latitude, longitude, range, height, and movement on the map or in text.







IsCatalogInMostPopularTable: catalog: 46925, numindb: 20
Update: records affected: 1



GetName: 46925 LEMUR-2-BAXTER-OLIVER

Hit Count: updated at: Tue, 19 Jan 2021 02:04:16 GMT